Weather History for PAKN - September, 2012

Change the Weather History Date:

Saturday, September 8, 2012

  Actual Average Record
Temperature  
Mean Temperature 45 °F 51 °F  
Max Temperature 57 °F 59 °F 72 °F (1935)
Min Temperature 32 °F 43 °F 25 °F (1970)
Degree Days  
Heating Degree Days 20 14  
Month to date heating degree days 134 108  
Since 1 July heating degree days 886 720  
Cooling Degree Days 0    
Month to date cooling degree days 0  
Year to date cooling degree days 0  
Moisture  
Dew Point 37 °F    
Average Humidity 84    
Maximum Humidity 100    
Minimum Humidity 41    
Precipitation  
Precipitation T in 0.11 in 1.04 in (1989)
Month to date precipitation 1.11 0.88  
Year to date precipitation 16.78 12.48  
Snow  
Snow 0.00 in 0.00 in 0.00 in (2014)
Month to date snowfall 0.0 0.0  
Since 1 July snowfall 0.0 0.0  
Since 1 September snowfall 0.0 0.0  
Snow Depth 0.00 in    
Sea Level Pressure  
Sea Level Pressure 29.89 in    
Wind  
Wind Speed 8 mph (NNW)    
Max Wind Speed 18 mph    
Max Gust Speed 25 mph    
Visibility 7 miles    
Events      
T = Trace of Precipitation, MM = Missing Value Source: NWS Daily Summary

Daily Weather History Graph

Daily Weather History Graph

Search for Another Location

Airport or City:

Trip Planner

Search our weather history database for the weather conditions in past years. The results will help you decide how hot, cold, wet, or windy it might be!

Date:

Astronomy

Sep. 08, 2012 Rise Set
Actual Time 7:42 AM AKDT 9:04 PM AKDT
Civil Twilight 7:00 AM AKDT 9:45 PM AKDT
Nautical Twilight 6:08 AM AKDT 10:37 PM AKDT
Astronomical Twilight 5:08 AM AKDT 11:36 PM AKDT
Moon No Moon Rise 5:16 PM AKDT (9/8)
Length of Visible Light 14h 45m
Length of Day
13h 22m
Waning Gibbous, 47% of the Moon is Illuminated
Sep 8
Waning Gibbous
Sep 15
New
Sep 22
First Quarter
Sep 29
Full
Oct 7
Last Quarter

Hourly Weather History & Observations

Time (AKDT) Temp. Windchill Dew Point Humidity Pressure Visibility Wind Dir Wind Speed Gust Speed Precip Events Conditions
12:54 AM 37.9 °F - 37.0 °F 97% 29.83 in 10.0 mi Calm Calm - N/A   Scattered Clouds
1:54 AM 34.0 °F 31.0 °F 34.0 °F 100% 29.83 in 2.0 mi East 3.5 mph - N/A   Scattered Clouds
2:00 AM 33.8 °F 30.8 °F 33.8 °F 100% 29.83 in 1.0 mi ENE 3.5 mph - N/A   Mist
2:08 AM - - - N/A% 29.83 in 0.8 mi East 3.5 mph - N/A   Mist
2:16 AM 33.8 °F 30.8 °F 33.8 °F 100% 29.83 in 1.2 mi East 3.5 mph - N/A   Scattered Clouds
2:54 AM 33.1 °F - 33.1 °F 100% 29.84 in 1.0 mi Calm Calm - N/A   Scattered Clouds
3:10 AM 32.0 °F 28.7 °F 32.0 °F 100% 29.83 in 0.8 mi East 3.5 mph - N/A   Unknown
3:23 AM 33.8 °F - 32.0 °F 93% 29.84 in 1.2 mi Calm Calm - N/A   Partly Cloudy
3:33 AM 32.0 °F 28.7 °F 32.0 °F 100% 29.84 in 0.8 mi ENE 3.5 mph - N/A   Mist
3:43 AM 32.0 °F 28.7 °F 32.0 °F 100% 29.84 in 1.2 mi ENE 3.5 mph - N/A   Scattered Clouds
3:50 AM 32.0 °F 28.7 °F 32.0 °F 100% 29.84 in 0.8 mi NE 3.5 mph - N/A   Mostly Cloudy
3:51 AM 32.0 °F 28.7 °F 32.0 °F 100% 29.84 in 0.8 mi NE 3.5 mph - N/A   Mostly Cloudy
4:16 AM 33.8 °F - 33.8 °F 100% 29.84 in 3.0 mi Calm Calm - N/A   Overcast
4:54 AM 35.1 °F - 35.1 °F 100% 29.85 in 10.0 mi Calm Calm - N/A   Overcast
5:54 AM 36.0 °F - 36.0 °F 100% 29.85 in 10.0 mi Calm Calm - N/A   Overcast
6:52 AM 37.4 °F 33.8 °F 37.4 °F 100% 29.87 in 10.0 mi NW 4.6 mph - N/A   Overcast
6:54 AM 37.0 °F 33.3 °F 37.0 °F 100% 29.87 in 10.0 mi NNW 4.6 mph - N/A   Overcast
7:54 AM 39.0 °F 34.8 °F 37.9 °F 96% 29.88 in 10.0 mi NNW 5.8 mph - N/A   Overcast
8:54 AM 39.9 °F 35.8 °F 39.0 °F 97% 29.89 in 10.0 mi NNW 5.8 mph - N/A   Mostly Cloudy
9:46 AM 39.2 °F 33.0 °F 39.2 °F 100% 29.90 in 10.5 mi North 9.2 mph - N/A   Mostly Cloudy
9:54 AM 39.9 °F 33.4 °F 39.0 °F 97% 29.91 in 10.0 mi NNW 10.4 mph - N/A   Mostly Cloudy
10:54 AM 46.0 °F 41.0 °F 41.0 °F 83% 29.91 in 10.0 mi NNW 10.4 mph - N/A   Scattered Clouds
11:54 AM 48.0 °F - 42.1 °F 80% 29.92 in 10.0 mi NNW 11.5 mph - N/A   Scattered Clouds
12:54 PM 51.1 °F - 42.1 °F 71% 29.92 in 10.0 mi NNW 12.7 mph - N/A   Partly Cloudy
1:54 PM 53.1 °F - 41.0 °F 64% 29.93 in 10.0 mi NW 12.7 mph 19.6 mph N/A   Mostly Cloudy
1:55 PM 48.2 °F - 39.2 °F 71% 30.01 in 10.0 mi NW 9.2 mph 17.3 mph N/A   Mostly Cloudy
2:54 PM 54.0 °F - 39.9 °F 59% 29.93 in 10.0 mi NNW 12.7 mph 23.0 mph N/A   Mostly Cloudy
3:42 PM 53.6 °F - 39.2 °F 58% 29.93 in 10.0 mi North 12.7 mph 21.9 mph N/A   Mostly Cloudy
3:43 PM 55.4 °F - 39.2 °F 54% 29.93 in 10.0 mi NNW 15.0 mph 20.7 mph N/A   Mostly Cloudy
3:54 PM 55.0 °F - 37.9 °F 53% 29.94 in 10.0 mi North 13.8 mph 20.7 mph N/A   Mostly Cloudy
4:54 PM 54.0 °F - 37.9 °F 55% 29.93 in 10.0 mi NNW 11.5 mph - N/A   Mostly Cloudy
5:54 PM 54.0 °F - 39.0 °F 57% 29.94 in 10.0 mi WNW 12.7 mph - N/A   Scattered Clouds
6:54 PM 55.0 °F - 39.9 °F 57% 29.94 in 10.0 mi NW 13.8 mph - N/A   Scattered Clouds
7:54 PM 54.0 °F - 39.0 °F 57% 29.95 in 10.0 mi NW 6.9 mph - 0.00 in   Scattered Clouds
8:54 PM 48.9 °F - 39.9 °F 71% 29.95 in 10.0 mi WNW 6.9 mph - N/A   Partly Cloudy
9:54 PM 46.0 °F 41.9 °F 41.0 °F 83% 29.96 in 10.0 mi WNW 8.1 mph - N/A   Partly Cloudy
10:54 PM 43.0 °F 38.8 °F 39.0 °F 86% 29.97 in 10.0 mi West 6.9 mph - N/A   Partly Cloudy
11:54 PM 42.1 °F 38.4 °F 37.0 °F 82% 29.98 in 10.0 mi NW 5.8 mph - N/A   Partly Cloudy